map of TGZ home
Great Circle Mapper logo
TGZ - Airport
Location
City:  Tuxtla Gutiérrez, Chiapas, México
Near (Alt.):Chiapa de Corzo
Name:Ángel Albino Corzo International Airport
ICAO / IATA:MMTG / TGZ

Details
Type:Airport (Aerodrome, Airfield)
Use:Public/Civil, International (customs port of entry)
Latitude:16°34'17"N (16.571389)
Longitude:93°01'56"W (-93.032221)
Elevation:1499 ft (457 m)
Runways:1
Longest:8202 × 148 ft (2500 × 45 m), paved

Time
Time Zone:UTC-6 (DST-5)
Local Time:

Weather
METAR:MMTG 211643Z 00000KT 8SM BKN010 BKN070 BKN080 25/21 A2988 RMK 8/570 CU FRMG
TAF:MMTG 211725Z 2118/2218 23010KT P6SM BKN015 BKN080
TEMPO 2120/2124 4SM RA BKN015CB
FM220200 00000KT 4SM RA BKN010 OVC030
FM220900 00000KT 2SM BR BKN005 OVC015
TEMPO 2212/2216 1SM BR DZ

Related Locations
Nearby:
Farthest:CCK: 11719 mi / 18861 km
West Island (Pulau Panjang) [Cocos (Keeling) Islands], CC

Find:

   beyond  
but within

Other Information
Maps:
NOTAMs:
Links:
Sources:

  
flag of México   

Sectional Chart

Flight Planning
at skyvector.com

Satellite Image

Google Maps Satellite View

 

Copyright © 2004-2014 Karl L. Swartz. All rights reserved.
The Great Circle Mapper name and logo are trademarks of the Great Circle Mapper.
All other trademarks mentioned herein belong to their respective owners.
Please see credits for attibutions and further copyright information.

  Follow gcmap on Facebook Follow gcmap on Twitter

hCard Microformat

Geo Microformat